This demonstration page uses our WeatherBlox Daily Observations layout. Learn more.

Left ArrowRight Arrow

Hourly Observations for November 24, 2018

Temp ( °F °C ) Dew Point ( °F °C ) Humidity (%) Winds ( mph kmh ) Pressure ( in mb ) Visibility ( mi km ) Precip ( " mm )
12:53 am 00:53 Cloudy with Light Rain 46 7.8 43 6.1 89 89 undefined N/A 29.83 1010 7 11 0.14 3.56
1:53 am 01:53 Cloudy with Light Rain 46 7.8 43 6.1 89 89 SSE 6 9 29.80 1009 6 10 0.04 1.02
2:38 am 02:38 Cloudy with Light Rain 45 7.2 43 6.1 93 93 SE 8 13 29.80 1009 5 8 0.07 1.78
2:53 am 02:53 Cloudy with Light Rain 45 7.2 43 6.1 93 93 SE 9 15 29.77 1008 6 10 0.09 2.29
3:10 am 03:10 Cloudy with Rain 45 7.2 43 6.1 93 93 ESE 9 15 29.77 1008 5 8 0.02 0.51
3:53 am 03:53 Cloudy with Rain 46 7.8 43 6.1 89 89 SSE 10 17 29.73 1007 6 10 0.10 2.54
4:04 am 04:04 Cloudy with Rain 46 7.8 43 6.1 89 89 SE 9 15 29.74 1007 5 8 0.02 0.51
4:12 am 04:12 Cloudy with Light Rain 46 7.8 43 6.1 89 89 VRB 5 7 29.74 1007 6 10 0.02 0.51
4:19 am 04:19 Cloudy with Light Rain 46 7.8 43 6.1 89 89 VRB 6 9 29.74 1007 6 10 0.03 0.76
4:28 am 04:28 Cloudy with Light Rain 46 7.8 43 6.1 89 89 VRB 6 9 29.74 1007 5 8 0.04 1.02
4:44 am 04:44 Cloudy with Light Rain 46 7.8 44 6.7 93 93 VRB 5 7 29.74 1007 4 6 0.05 1.27
4:53 am 04:53 Cloudy with Light Rain 46 7.8 44 6.7 93 93 VRB 7 11 29.71 1006 4 6 0.05 1.27
5:16 am 05:16 Cloudy with Light Rain 46 7.8 44 6.7 93 93 VRB 6 9 29.74 1007 7 11 N/A
5:24 am 05:24 Cloudy with Light Rain 46 7.8 44 6.7 93 93 VRB 6 9 29.74 1007 8 13 N/A
5:53 am 05:53 Cloudy with Light Rain 46 7.8 44 6.7 93 93 SSE 8 13 29.70 1006 7 11 0.01 0.25
6:23 am 06:23 Cloudy with Light Rain 47 8.3 44 6.7 90 90 VRB 6 9 29.71 1006 4 6 N/A
6:33 am 06:33 Cloudy with Mist and Fog 47 8.3 45 7.2 93 93 S 7 11 29.71 1006 6 10 N/A
6:53 am 06:53 Cloudy with Light Rain 47 8.3 45 7.2 93 93 VRB 5 7 29.69 1005 4 6 0.01 0.25
7:53 am 07:53 Cloudy with Mist and Fog 47 8.3 45 7.2 93 93 VRB 7 11 29.68 1005 6 10 N/A
8:30 am 08:30 Cloudy with Light Rain 48 8.9 46 7.8 93 93 VRB 6 9 29.71 1006 3 5 N/A
8:37 am 08:37 Cloudy with Light Rain 48 8.9 46 7.8 93 93 VRB 6 9 29.71 1006 3 5 0.01 0.25
8:53 am 08:53 Cloudy with Light Rain 48 8.9 46 7.8 93 93 S 5 7 29.68 1005 6 10 0.01 0.25
9:03 am 09:03 Cloudy with Mist and Fog 48 8.9 46 7.8 93 93 VRB 5 7 29.71 1006 4 6 N/A
9:22 am 09:22 Cloudy with Mist and Fog 48 8.9 46 7.8 93 93 VRB 7 11 29.71 1006 4 6 N/A
9:53 am 09:53 Cloudy 48 8.9 47 8.3 96 96 VRB 7 11 29.68 1005 9 14 N/A
10:07 am 10:07 Cloudy 49 9.4 47 8.3 93 93 SSW 7 11 29.71 1006 9 14 N/A
10:53 am 10:53 Cloudy with Mist and Fog 49 9.4 47 8.3 93 93 SSW 7 11 29.69 1006 6 10 N/A
11:15 am 11:15 Cloudy 50 10 48 8.9 93 93 SW 8 13 29.71 1006 10 16 N/A
11:53 am 11:53 Cloudy 50 10 48 8.9 93 93 SW 9 15 29.68 1005 10 16 N/A
12:34 pm 12:34 Cloudy 52 11.1 49 9.4 89 89 SW 10 17 29.68 1005 10 16 N/A
12:53 pm 12:53 Cloudy 52 11.1 49 9.4 89 89 SW 9 15 29.67 1005 10 16 N/A
1:53 pm 13:53 Cloudy 53 11.7 48 8.9 83 83 SW 12 19 29.67 1005 10 16 N/A
2:14 pm 14:14 Partly Cloudy 55 12.8 48 8.9 77 77 SW 9 15 29.65 1004 10 16 N/A
2:53 pm 14:53 Mostly Cloudy 54 12.2 47 8.3 77 77 WSW 9 15 29.67 1005 10 16 N/A
3:34 pm 15:34 Mostly Cloudy 54 12.2 47 8.3 77 77 SW 9 15 29.68 1005 10 16 N/A
3:53 pm 15:53 Mostly Cloudy 55 12.8 46 7.8 72 72 SW 9 15 29.68 1005 10 16 N/A
4:53 pm 16:53 Sunny 53 11.7 46 7.8 77 77 SW 7 11 29.70 1006 10 16 N/A
5:53 pm 17:53 Clear 51 10.6 44 6.7 77 77 SW 5 7 29.73 1007 10 16 N/A
6:53 pm 18:53 Clear 43 6.1 40 4.4 89 89 N N/A 29.75 1007 9 14 N/A
7:53 pm 19:53 Clear with Mist and Fog 40 4.4 37 2.8 89 89 N N/A 29.77 1008 5 8 N/A
8:24 pm 20:24 Clear with Mist and Fog 39 3.9 36 2.2 89 89 N N/A 29.80 1009 2 3 N/A
8:34 pm 20:34 Clear 40 4.4 36 2.2 86 86 N N/A 29.80 1009 7 11 N/A
8:53 pm 20:53 Clear with Mist and Fog 39 3.9 36 2.2 89 89 N N/A 29.78 1008 5 8 N/A
9:40 pm 21:40 Clear with Mist and Fog 38 3.3 34 1.1 86 86 N N/A 29.83 1010 2 2 N/A
9:51 pm 21:51 Clear with Mist and Fog 37 3 34 1 87 87 N N/A 29.83 1010 3 4 N/A
9:53 pm 21:53 Clear with Mist and Fog 38 3.3 34 1.1 86 86 N N/A 29.80 1009 3 5 N/A
10:12 pm 22:12 Clear with Mist and Fog 38 3.3 35 1.7 89 89 N N/A 29.83 1010 2 3 N/A
10:19 pm 22:19 Clear with Mist and Fog 38 3.3 35 1.7 89 89 N N/A 29.83 1010 2 2 N/A
10:23 pm 22:23 Clear with Mist and Fog 38 3.3 35 1.7 89 89 N N/A 29.83 1010 2 3 N/A
10:53 pm 22:53 Clear with Mist and Fog 37 2.8 34 1.1 89 89 N N/A 29.81 1010 3 5 N/A
11:30 pm 23:30 Clear with Mist and Fog 39 3.9 35 1.7 86 86 ENE 3 6 29.83 1010 3 4 N/A
11:38 pm 23:38 Clear with Mist and Fog 39 3.9 36 2.2 89 89 E 3 6 29.83 1010 4 6 N/A
11:53 pm 23:53 Clear with Mist and Fog 40 4.4 37 2.8 89 89 ENE 3 6 29.83 1010 4 6 N/A

Powered by AerisWeather